Time,TemperatureF,DewpointF,PressureIn,WindDirection,WindDirectionDegrees,WindSpeedMPH,WindSpeedGustMPH,Humidity,HourlyPrecipIn,Conditions,Clouds,dailyrainin,SolarRadiationWatts/m^2,SoftwareType,DateUTC
2013-08-06 00:01:00,57.0,54.0,-100.00,NE,46,0.0,2.0,90,0.00,,,0.00,1.000000,,2013-08-06 07:01:00,
2013-08-06 00:10:00,55.0,53.0,-100.00,NE,45,0.0,1.0,94,0.00,,,0.00,1.000000,,2013-08-06 07:10:00,
2013-08-06 00:44:00,55.0,53.0,-100.00,NE,45,0.0,1.0,94,0.00,,,0.00,1.000000,,2013-08-06 07:44:00,
2013-08-06 00:53:00,55.0,53.0,-100.00,NE,45,0.0,1.0,94,0.00,,,0.00,1.000000,,2013-08-06 07:53:00,
2013-08-06 01:01:00,55.0,53.0,-100.00,NE,45,0.0,1.0,94,0.00,,,0.00,1.000000,,2013-08-06 08:01:00,
2013-08-06 01:10:00,54.0,53.0,-100.00,NE,45,0.0,1.0,95,0.00,,,0.00,1.000000,,2013-08-06 08:10:00,
2013-08-06 01:43:00,54.0,53.0,-100.00,NE,45,0.0,1.0,95,0.00,,,0.00,1.000000,,2013-08-06 08:43:00,
2013-08-06 01:52:00,54.0,53.0,-100.00,NE,45,0.0,1.0,95,0.00,,,0.00,1.000000,,2013-08-06 08:52:00,
2013-08-06 02:01:00,54.0,53.0,-100.00,NE,45,0.0,1.0,95,0.00,,,0.00,1.000000,,2013-08-06 09:01:00,
2013-08-06 02:10:00,53.0,52.0,-100.00,NE,45,0.0,1.0,95,0.00,,,0.00,1.000000,,2013-08-06 09:10:00,
2013-08-06 02:43:00,53.0,52.0,-100.00,NE,45,0.0,1.0,95,0.00,,,0.00,1.000000,,2013-08-06 09:43:00,
2013-08-06 02:52:00,53.0,52.0,-100.00,NE,45,0.0,1.0,95,0.00,,,0.00,1.000000,,2013-08-06 09:52:00,
2013-08-06 03:01:00,53.0,52.0,-100.00,NE,45,0.0,1.0,95,0.00,,,0.00,1.000000,,2013-08-06 10:01:00,
2013-08-06 03:10:00,51.0,50.0,-100.00,NE,45,0.0,0.0,96,0.00,,,0.00,1.000000,,2013-08-06 10:10:00,
2013-08-06 03:43:00,51.0,50.0,-100.00,NE,45,0.0,0.0,96,0.00,,,0.00,1.000000,,2013-08-06 10:43:00,
2013-08-06 03:53:00,51.0,50.0,-100.00,NE,45,0.0,0.0,96,0.00,,,0.00,1.000000,,2013-08-06 10:53:00,
2013-08-06 04:01:00,51.0,50.0,-100.00,NE,45,0.0,0.0,96,0.00,,,0.00,1.000000,,2013-08-06 11:01:00,
2013-08-06 04:10:00,51.0,50.0,-100.00,NE,45,0.0,0.0,96,0.00,,,0.00,1.000000,,2013-08-06 11:10:00,
2013-08-06 04:32:00,51.0,50.0,-100.00,NE,45,0.0,0.0,96,0.00,,,0.00,1.000000,,2013-08-06 11:32:00,
2013-08-06 04:43:00,51.0,50.0,-100.00,NE,45,0.0,0.0,96,0.00,,,0.00,1.000000,,2013-08-06 11:43:00,
2013-08-06 04:53:00,51.0,50.0,-100.00,NE,45,0.0,0.0,96,0.00,,,0.00,1.000000,,2013-08-06 11:53:00,
2013-08-06 05:01:00,51.0,50.0,-100.00,NE,45,0.0,0.0,96,0.00,,,0.00,1.000000,,2013-08-06 12:01:00,
2013-08-06 05:10:00,50.0,49.0,-100.00,SE,135,1.0,3.0,97,0.00,,,0.00,1.000000,,2013-08-06 12:10:00,
2013-08-06 05:43:00,50.0,49.0,-100.00,SE,135,1.0,3.0,97,0.00,,,0.00,1.000000,,2013-08-06 12:43:00,
2013-08-06 05:52:00,50.0,49.0,-100.00,SE,135,1.0,3.0,97,0.00,,,0.00,1.000000,,2013-08-06 12:52:00,
2013-08-06 06:01:00,50.0,49.0,-100.00,SE,135,1.0,3.0,97,0.00,,,0.00,1.000000,,2013-08-06 13:01:00,
2013-08-06 06:10:00,49.0,48.0,-100.00,ESE,108,0.0,3.0,97,0.00,,,0.00,2.000000,,2013-08-06 13:10:00,
2013-08-06 06:42:00,49.0,48.0,-100.00,ESE,108,0.0,3.0,97,0.00,,,0.00,2.000000,,2013-08-06 13:42:00,
2013-08-06 06:53:00,49.0,48.0,-100.00,ESE,108,0.0,3.0,97,0.00,,,0.00,2.000000,,2013-08-06 13:53:00,
2013-08-06 07:01:00,49.0,48.0,-100.00,ESE,108,0.0,3.0,97,0.00,,,0.00,2.000000,,2013-08-06 14:01:00,
2013-08-06 07:10:00,49.0,48.0,-100.00,ESE,108,0.0,1.0,97,0.00,,,0.00,15.000000,,2013-08-06 14:10:00,
2013-08-06 07:42:00,49.0,48.0,-100.00,ESE,108,0.0,1.0,97,0.00,,,0.00,15.000000,,2013-08-06 14:42:00,
2013-08-06 07:53:00,49.0,48.0,-100.00,ESE,108,0.0,1.0,97,0.00,,,0.00,15.000000,,2013-08-06 14:53:00,
2013-08-06 08:02:00,49.0,48.0,-100.00,ESE,108,0.0,1.0,97,0.00,,,0.00,15.000000,,2013-08-06 15:02:00,
2013-08-06 08:10:00,58.0,54.0,-100.00,ESE,108,0.0,1.0,88,0.00,,,0.00,127.000000,,2013-08-06 15:10:00,
2013-08-06 08:44:00,58.0,54.0,-100.00,ESE,108,0.0,1.0,88,0.00,,,0.00,127.000000,,2013-08-06 15:44:00,
2013-08-06 08:52:00,58.0,54.0,-100.00,ESE,108,0.0,1.0,88,0.00,,,0.00,127.000000,,2013-08-06 15:52:00,
2013-08-06 09:01:00,58.0,54.0,-100.00,ESE,108,0.0,1.0,88,0.00,,,0.00,127.000000,,2013-08-06 16:01:00,
2013-08-06 09:10:00,69.0,58.0,-100.00,SSW,212,0.0,3.0,67,0.00,,,0.00,368.000000,,2013-08-06 16:10:00,
2013-08-06 09:52:00,69.0,58.0,-100.00,SSW,212,0.0,3.0,67,0.00,,,0.00,368.000000,,2013-08-06 16:52:00,
2013-08-06 10:02:00,69.0,58.0,-100.00,SSW,212,0.0,3.0,67,0.00,,,0.00,368.000000,,2013-08-06 17:02:00,
2013-08-06 10:10:00,74.0,58.0,-100.00,West,262,2.0,6.0,57,0.00,,,0.00,539.000000,,2013-08-06 17:10:00,
2013-08-06 10:44:00,74.0,58.0,-100.00,West,262,2.0,6.0,57,0.00,,,0.00,539.000000,,2013-08-06 17:44:00,
2013-08-06 10:52:00,74.0,58.0,-100.00,West,262,2.0,6.0,57,0.00,,,0.00,539.000000,,2013-08-06 17:52:00,
2013-08-06 11:01:00,74.0,58.0,-100.00,West,262,2.0,6.0,57,0.00,,,0.00,539.000000,,2013-08-06 18:01:00,
2013-08-06 11:10:00,77.0,56.0,-100.00,SSW,206,3.0,10.0,48,0.00,,,0.00,684.000000,,2013-08-06 18:10:00,
2013-08-06 11:43:00,77.0,56.0,-100.00,SSW,206,3.0,10.0,48,0.00,,,0.00,684.000000,,2013-08-06 18:43:00,
2013-08-06 11:52:00,77.0,56.0,-100.00,SSW,206,3.0,10.0,48,0.00,,,0.00,684.000000,,2013-08-06 18:52:00,
2013-08-06 12:01:00,77.0,56.0,-100.00,SSW,206,3.0,10.0,48,0.00,,,0.00,684.000000,,2013-08-06 19:01:00,
2013-08-06 12:10:00,81.0,54.0,-100.00,SW,220,3.0,9.0,40,0.00,,,0.00,736.000000,,2013-08-06 19:10:00,
2013-08-06 12:42:00,81.0,54.0,-100.00,SW,220,3.0,9.0,40,0.00,,,0.00,736.000000,,2013-08-06 19:42:00,
2013-08-06 12:52:00,81.0,54.0,-100.00,SW,220,3.0,9.0,40,0.00,,,0.00,736.000000,,2013-08-06 19:52:00,
2013-08-06 13:01:00,81.0,54.0,-100.00,SW,220,3.0,9.0,40,0.00,,,0.00,736.000000,,2013-08-06 20:01:00,
2013-08-06 13:10:00,82.0,54.0,-100.00,SW,232,4.0,11.0,38,0.00,,,0.00,856.000000,,2013-08-06 20:10:00,
2013-08-06 13:44:00,82.0,54.0,-100.00,SW,232,4.0,11.0,38,0.00,,,0.00,856.000000,,2013-08-06 20:44:00,
2013-08-06 13:52:00,82.0,54.0,-100.00,SW,232,4.0,11.0,38,0.00,,,0.00,856.000000,,2013-08-06 20:52:00,
2013-08-06 14:01:00,82.0,54.0,-100.00,SW,232,4.0,11.0,38,0.00,,,0.00,856.000000,,2013-08-06 21:01:00,
2013-08-06 14:10:00,84.0,49.0,-100.00,SW,228,4.0,13.0,30,0.00,,,0.00,863.000000,,2013-08-06 21:10:00,
2013-08-06 14:43:00,84.0,49.0,-100.00,SW,228,4.0,13.0,30,0.00,,,0.00,863.000000,,2013-08-06 21:43:00,
2013-08-06 14:52:00,84.0,49.0,-100.00,SW,228,4.0,13.0,30,0.00,,,0.00,863.000000,,2013-08-06 21:52:00,
2013-08-06 15:01:00,84.0,49.0,-100.00,SW,228,4.0,13.0,30,0.00,,,0.00,863.000000,,2013-08-06 22:01:00,
2013-08-06 15:10:00,87.0,48.0,-100.00,NNW,331,3.0,11.0,26,0.00,,,0.00,848.000000,,2013-08-06 22:10:00,
2013-08-06 15:43:00,87.0,48.0,-100.00,NNW,331,3.0,11.0,26,0.00,,,0.00,848.000000,,2013-08-06 22:43:00,
2013-08-06 15:53:00,87.0,48.0,-100.00,NNW,331,3.0,11.0,26,0.00,,,0.00,848.000000,,2013-08-06 22:53:00,
2013-08-06 16:01:00,87.0,48.0,-100.00,NNW,331,3.0,11.0,26,0.00,,,0.00,848.000000,,2013-08-06 23:01:00,
2013-08-06 17:10:00,87.0,50.0,-100.00,SSW,194,2.0,9.0,28,0.00,,,0.00,630.000000,,2013-08-07 00:10:00,
2013-08-06 17:43:00,87.0,50.0,-100.00,SSW,194,2.0,9.0,28,0.00,,,0.00,630.000000,,2013-08-07 00:43:00,
2013-08-06 17:52:00,87.0,50.0,-100.00,SSW,194,2.0,9.0,28,0.00,,,0.00,630.000000,,2013-08-07 00:52:00,
2013-08-06 18:01:00,87.0,50.0,-100.00,SSW,194,2.0,9.0,28,0.00,,,0.00,630.000000,,2013-08-07 01:01:00,
2013-08-06 18:10:00,85.0,53.0,-100.00,NNW,334,2.0,9.0,33,0.00,,,0.00,466.000000,,2013-08-07 01:10:00,
2013-08-06 18:43:00,85.0,53.0,-100.00,NNW,334,2.0,9.0,33,0.00,,,0.00,466.000000,,2013-08-07 01:43:00,
2013-08-06 18:52:00,85.0,53.0,-100.00,NNW,334,2.0,9.0,33,0.00,,,0.00,466.000000,,2013-08-07 01:52:00,
2013-08-06 19:02:00,85.0,53.0,-100.00,NNW,334,2.0,9.0,33,0.00,,,0.00,466.000000,,2013-08-07 02:02:00,
2013-08-06 19:10:00,78.0,54.0,-100.00,NNW,342,1.0,8.0,43,0.00,,,0.00,180.000000,,2013-08-07 02:10:00,
2013-08-06 19:43:00,78.0,54.0,-100.00,NNW,342,1.0,8.0,43,0.00,,,0.00,180.000000,,2013-08-07 02:43:00,
2013-08-06 19:53:00,78.0,54.0,-100.00,NNW,342,1.0,8.0,43,0.00,,,0.00,180.000000,,2013-08-07 02:53:00,
2013-08-06 20:01:00,78.0,54.0,-100.00,NNW,342,1.0,8.0,43,0.00,,,0.00,180.000000,,2013-08-07 03:01:00,
2013-08-06 20:10:00,71.0,55.0,-100.00,NNE,21,1.0,5.0,58,0.00,,,0.00,21.000000,,2013-08-07 03:10:00,
2013-08-06 20:32:00,71.0,55.0,-100.00,NNE,21,1.0,5.0,58,0.00,,,0.00,21.000000,,2013-08-07 03:32:00,
2013-08-06 20:43:00,71.0,55.0,-100.00,NNE,21,1.0,5.0,58,0.00,,,0.00,21.000000,,2013-08-07 03:43:00,
2013-08-06 20:52:00,71.0,55.0,-100.00,NNE,21,1.0,5.0,58,0.00,,,0.00,21.000000,,2013-08-07 03:52:00,
2013-08-06 21:01:00,71.0,55.0,-100.00,NNE,21,1.0,5.0,58,0.00,,,0.00,21.000000,,2013-08-07 04:01:00,
2013-08-06 21:10:00,65.0,56.0,-100.00,ENE,64,0.0,3.0,74,0.00,,,0.00,4.000000,,2013-08-07 04:10:00,
2013-08-06 21:43:00,65.0,56.0,-100.00,ENE,64,0.0,3.0,74,0.00,,,0.00,4.000000,,2013-08-07 04:43:00,
2013-08-06 21:52:00,65.0,56.0,-100.00,ENE,64,0.0,3.0,74,0.00,,,0.00,4.000000,,2013-08-07 04:52:00,
2013-08-06 22:02:00,65.0,56.0,-100.00,ENE,64,0.0,3.0,74,0.00,,,0.00,4.000000,,2013-08-07 05:02:00,
2013-08-06 22:10:00,60.0,55.0,-100.00,NNW,330,0.0,2.0,84,0.00,,,0.00,1.000000,,2013-08-07 05:10:00,
2013-08-06 22:43:00,60.0,55.0,-100.00,NNW,330,0.0,2.0,84,0.00,,,0.00,1.000000,,2013-08-07 05:43:00,
2013-08-06 22:52:00,60.0,55.0,-100.00,NNW,330,0.0,2.0,84,0.00,,,0.00,1.000000,,2013-08-07 05:52:00,
2013-08-06 23:02:00,60.0,55.0,-100.00,NNW,330,0.0,2.0,84,0.00,,,0.00,1.000000,,2013-08-07 06:02:00,
2013-08-06 23:10:00,57.0,54.0,-100.00,NNW,330,0.0,0.0,89,0.00,,,0.00,1.000000,,2013-08-07 06:10:00,
2013-08-06 23:43:00,57.0,54.0,-100.00,NNW,330,0.0,0.0,89,0.00,,,0.00,1.000000,,2013-08-07 06:43:00,
2013-08-06 23:52:00,57.0,54.0,-100.00,NNW,330,0.0,0.0,89,0.00,,,0.00,1.000000,,2013-08-07 06:52:00,